Location: Unspecified
(58.9933°N, 5.6375°E)
Time: 10:26:15
(UTC+01:00)

Resurs 1-4 Rocket - Visible Passes

Search period start: 13 December 2017 00:00
Search period end: 23 December 2017 00:00
Orbit: 799 x 815 km, 98.5° (Epoch: 12 December)

Date Brightness Start Highest point End Pass type
(mag) Time Alt. Az. Time Alt. Az. Time Alt. Az.
13 Dec 4.5 04:50:52 10° N 04:51:15 12° N 04:51:15 12° N visible
14 Dec 4.7 04:26:07 10° N 04:26:20 11° N 04:26:20 11° N visible
14 Dec 4.3 06:07:09 10° N 06:07:24 11° N 06:07:24 11° N visible
15 Dec 4.8 04:01:24 10° NNE 04:01:25 10° NNE 04:01:25 10° NNE visible
15 Dec 4.4 05:42:07 10° N 05:42:30 11° N 05:42:30 11° N visible
16 Dec 4.5 05:17:14 10° N 05:17:35 11° N 05:17:35 11° N visible
17 Dec 4.6 04:52:25 10° N 04:52:41 11° N 04:52:41 11° N visible
18 Dec 4.7 04:27:39 10° N 04:27:47 11° N 04:27:47 11° N visible
18 Dec 4.4 06:08:43 10° N 06:08:52 10° N 06:08:52 10° N visible
19 Dec 4.4 05:43:41 10° N 05:43:58 11° N 05:43:58 11° N visible
20 Dec 4.5 05:18:48 10° N 05:19:04 11° N 05:19:04 11° N visible
21 Dec 4.6 04:53:58 10° N 04:54:10 11° N 04:54:10 11° N visible
22 Dec 4.7 04:29:12 10° N 04:29:17 10° N 04:29:17 10° N visible
22 Dec 4.4 06:10:17 10° N 06:10:22 10° N 06:10:22 10° N visible
